Location: Bergnershof
(48.9468°N, 10.9431°E)
Time: 11:38:33
(UTC+00:00)

USA 305 - Pass Details

Date: 03 March 2021
Orbit: 567 x 574 km, 54.0° (Epoch: 13 April)

Event Time Altitude Azimuth Distance (km) Brightness Sun altitude
Rises 18:05:15 0° 274° (W) 2,779 8.7 -11.0°
Reaches altitude 10° 18:07:36 10° 281° (W) 1,881 7.1 -11.4°
Maximum altitude 18:11:41 43° 353° (N) 812 3.7 -12.1°
Enters shadow 18:14:59 15° 62° (ENE) 1,587 4.7 -12.6°
